COSMOS 2251 DEB, 33936

Orbit data source: Space-Track

COSMOS 2251 DEB, 33936 is space debris in LEO originally from a launch on Wed, 16 Jun 1993 UTC launched from the Plesetsk Missile And Space Complex (PKMTR). The debris from Iridium 33, an American commercial communications satellite, has been tracked extensively since its accidental collision with the defunct Russian satellite Cosmos 2251 in 2009. This event, occurring at high speed in low Earth orbit (LEO), generated thousands of pieces of space debris, significantly increasing the risk of further collisions. The Iridium 33 debris cloud has impacted space traffic management and orbital debris mitigation strategies, making it a subject of ongoing study in space situational awareness.

Loading next visibility...
Identifier
33936, 1993-036ER
Orbit
LEO
Country
Flag of CISCIS
Related business
Manufacturer
Unknown
Mission
Spacecraft
Bus & Motor
Unknown
Mass
Unknown
Launch date (UTC)
1993-06-16 (33 years ago)
Launch vehicle
Unknown
Launch site
Plesetsk Missile And Space Complex (PKMTR)
Object type
Payload
Rocket body
Debris
Shape & HBR
Unknown shape, 0.2 m
Radar Cross Section
Small (<0.1 m²)

Expand to show TLE details & history
Last TLE update: 7 hours ago

TLE from 7 hours ago
0 COSMOS 2251 DEB
1 33936U 93036ER  26120.10748833  .00002584  00000-0  52713-3 0  9990
2 33936  74.0149 132.8162 0029741 250.7046 109.0903 14.61214068909105
Epoch: 2026-04-30T02:34Z
TLE epoch observation values (Epoch: 2026-04-30T02:34:46.991Z)
Latitude
-0.00004°
Longitude
-123.93845°
Altitude
698.828 km
Speed
7.503 km/s
True Right ascension
08h 51m 15s
True Declination
0° 00' 00"
Sunlit
Object was in daylight at epoch
Visualization orbit readout
Latitude
Unknown
Longitude
Unknown
Altitude
Unknown
Speed
Unknown
Apparent Right ascension
Unknown
Apparent Declination
Unknown
Sunlit
N/A
Visualization observer readout
Local Sidereal Time
17:27:17
Azimuth
Unknown
Elevation
Unknown
Doppler factor
Unknown
Orbital elements
Apogee altitude
707.867 km
Perigee altitude
665.843 km
Semi-major axis
7,064.992 km
Eccentricity
0.00297
Inclination
74.0149°
RAAN
132.8162°
Arg. of periapsis
250.7046°
True anomaly
109.41197°
Mean anomaly
109.0903°
Eccentric anomaly
109.25117°
Mean motion
3.6549 °/min
Orbital period
98.5 mins
BSTAR
0.00052713
Loading maneuver chart data...
Computing Atmospheric mass density...

Documentation

Showing up to 5 results
|